DAL2769 KSEA-KLAX

Flight info

Callsign DAL2769
Flight time 2h 25m
Altitude 37000
Route SUMMA2 SUMMA JINMO Q7 JAGWA BURGL IRNMN2
Aircraft A320/M-SDE3FGHIRWY/LB1

Departure

Time 2026-04-20 16:49
Airport Seattle–Tacoma International Airport (KSEA)

Arrival

Time 2026-04-20 19:15
Airport Los Angeles International Airport (KLAX)
Time Latitude Longitude Altitude Speed Heading
2026-04-20 15:51 47.43804 -122.29752 389 ft 0 kts 22°
2026-04-20 16:40 47.43790 -122.29760 388 ft 4 kts 28°
2026-04-20 16:40 47.43768 -122.29782 387 ft 4 kts 42°
2026-04-20 16:40 47.43751 -122.29811 386 ft 4 kts 63°
2026-04-20 16:40 47.43743 -122.29848 385 ft 4 kts 89°
2026-04-20 16:41 47.43746 -122.29887 385 ft 4 kts 110°
2026-04-20 16:41 47.43758 -122.29922 385 ft 4 kts 125°
2026-04-20 16:41 47.43775 -122.29952 385 ft 4 kts 138°
2026-04-20 16:41 47.43796 -122.29974 386 ft 4 kts 165°
2026-04-20 16:42 47.43809 -122.29977 386 ft 1 kts 193°
2026-04-20 16:44 47.43808 -122.29978 386 ft 0 kts 193°
2026-04-20 16:45 47.43798 -122.29981 386 ft 3 kts 193°
2026-04-20 16:45 47.43767 -122.30024 384 ft 8 kts 255°
2026-04-20 16:45 47.43757 -122.30103 383 ft 8 kts 258°
2026-04-20 16:45 47.43746 -122.30181 382 ft 7 kts 258°
2026-04-20 16:46 47.43734 -122.30265 382 ft 10 kts 258°
2026-04-20 16:46 47.43722 -122.30366 381 ft 10 kts 269°
2026-04-20 16:46 47.43723 -122.30461 380 ft 9 kts 271°
2026-04-20 16:46 47.43724 -122.30554 378 ft 9 kts 271°
2026-04-20 16:47 47.43695 -122.30639 374 ft 11 kts 194°
2026-04-20 16:47 47.43618 -122.30618 372 ft 12 kts 157°
2026-04-20 16:47 47.43542 -122.30562 370 ft 12 kts 169°
2026-04-20 16:47 47.43449 -122.30561 372 ft 14 kts 180°
2026-04-20 16:48 47.43340 -122.30561 364 ft 17 kts 180°
2026-04-20 16:48 47.43218 -122.30587 361 ft 15 kts 212°
2026-04-20 16:48 47.43180 -122.30699 362 ft 11 kts 244°
2026-04-20 16:48 47.43175 -122.30789 364 ft 9 kts 307°
2026-04-20 16:49 47.43316 -122.30805 360 ft 44 kts
2026-04-20 16:49 47.43873 -122.30798 380 ft 111 kts
2026-04-20 16:49 47.44808 -122.30789 422 ft 157 kts
2026-04-20 16:49 47.45890 -122.30794 1052 ft 154 kts
2026-04-20 16:50 47.46956 -122.30827 1691 ft 153 kts
2026-04-20 16:50 47.48032 -122.30866 2187 ft 160 kts
2026-04-20 16:50 47.49209 -122.30875 2467 ft 179 kts
2026-04-20 16:50 47.50544 -122.30881 2749 ft 203 kts
2026-04-20 16:51 47.52049 -122.30894 2973 ft 232 kts
2026-04-20 16:51 47.53735 -122.30918 3459 ft 250 kts 360°
2026-04-20 16:51 47.55507 -122.30953 4090 ft 263 kts 359°
2026-04-20 16:51 47.57376 -122.30834 4893 ft 269 kts 13°
2026-04-20 16:52 47.59046 -122.29659 5685 ft 273 kts 40°
2026-04-20 16:52 47.60204 -122.27438 6516 ft 276 kts 67°
2026-04-20 16:52 47.60568 -122.24650 7355 ft 279 kts 94°
2026-04-20 16:52 47.60198 -122.21825 8219 ft 280 kts 105°
2026-04-20 16:53 47.59514 -122.19117 9001 ft 284 kts 122°
2026-04-20 16:53 47.58167 -122.16975 9770 ft 287 kts 145°
2026-04-20 16:53 47.56340 -122.15795 10535 ft 291 kts 168°
2026-04-20 16:53 47.54271 -122.15333 10872 ft 312 kts 172°
2026-04-20 16:54 47.52066 -122.14925 11080 ft 334 kts 173°
2026-04-20 16:54 47.49714 -122.14519 11602 ft 344 kts 173°
2026-04-20 16:54 47.47314 -122.14106 12318 ft 348 kts 174°
2026-04-20 16:54 47.44902 -122.13684 13061 ft 350 kts 174°
2026-04-20 16:55 47.42467 -122.13255 13768 ft 353 kts 174°
2026-04-20 16:55 47.40023 -122.12819 14442 ft 355 kts 174°
2026-04-20 16:55 47.37559 -122.12378 15093 ft 358 kts 174°
2026-04-20 16:55 47.35104 -122.11937 15755 ft 360 kts 174°
2026-04-20 16:56 47.32600 -122.11487 16397 ft 363 kts 174°
2026-04-20 16:56 47.30078 -122.11028 17018 ft 365 kts 174°
2026-04-20 16:56 47.27546 -122.10567 17609 ft 368 kts 174°
2026-04-20 16:56 47.25021 -122.10107 18183 ft 371 kts 174°
2026-04-20 16:57 47.22445 -122.09636 18776 ft 373 kts 174°
2026-04-20 16:57 47.19856 -122.09167 19346 ft 376 kts 174°
2026-04-20 16:57 47.17248 -122.08699 19911 ft 379 kts 174°
2026-04-20 16:57 47.14626 -122.08230 20474 ft 381 kts 174°
2026-04-20 16:58 47.11983 -122.07757 21009 ft 383 kts 174°
2026-04-20 16:58 47.09324 -122.07279 21512 ft 386 kts 174°
2026-04-20 16:58 47.06649 -122.06801 21997 ft 388 kts 174°
2026-04-20 16:58 47.03953 -122.06324 22452 ft 391 kts 174°
2026-04-20 16:59 47.01237 -122.05844 22904 ft 394 kts 174°
2026-04-20 16:59 46.98545 -122.05365 23357 ft 396 kts 174°
2026-04-20 16:59 46.95799 -122.04874 23785 ft 398 kts 173°
2026-04-20 16:59 46.93045 -122.04381 24216 ft 400 kts 173°
2026-04-20 17:00 46.87487 -122.03386 24980 ft 404 kts 173°
2026-04-20 17:00 46.84690 -122.02886 25356 ft 405 kts 173°
2026-04-20 17:00 46.81885 -122.02386 25729 ft 407 kts 173°
2026-04-20 17:01 46.79060 -122.01888 26102 ft 409 kts 174°
2026-04-20 17:01 46.76223 -122.01387 26473 ft 411 kts 173°
2026-04-20 17:01 46.73417 -122.00891 26814 ft 412 kts 174°
2026-04-20 17:01 46.70566 -122.00389 27134 ft 414 kts 174°
2026-04-20 17:02 46.67698 -121.99882 27435 ft 415 kts 174°
2026-04-20 17:02 46.64810 -121.99423 27715 ft 417 kts 178°
2026-04-20 17:02 46.61908 -121.99551 28006 ft 419 kts 187°
2026-04-20 17:02 46.59052 -122.00415 28301 ft 421 kts 197°
2026-04-20 17:03 46.56304 -122.01885 28597 ft 422 kts 200°
2026-04-20 17:03 46.53562 -122.03428 28885 ft 423 kts 200°
2026-04-20 17:03 46.50815 -122.04963 29155 ft 424 kts 200°
2026-04-20 17:03 46.48048 -122.06499 29407 ft 425 kts 200°
2026-04-20 17:04 46.45276 -122.08030 29647 ft 426 kts 200°
2026-04-20 17:04 46.42497 -122.09562 29871 ft 427 kts 200°
2026-04-20 17:04 46.39721 -122.10918 30133 ft 425 kts 193°
2026-04-20 17:04 46.36805 -122.11645 30432 ft 423 kts 185°
2026-04-20 17:05 46.33862 -122.11649 30735 ft 423 kts 176°
2026-04-20 17:05 46.30945 -122.11026 31058 ft 422 kts 172°
2026-04-20 17:05 46.28047 -122.10322 31380 ft 421 kts 172°
2026-04-20 17:05 46.25201 -122.09642 31706 ft 419 kts 172°
2026-04-20 17:06 46.22333 -122.08960 32038 ft 417 kts 172°
2026-04-20 17:06 46.19469 -122.08282 32344 ft 415 kts 172°
2026-04-20 17:06 46.16621 -122.07606 32635 ft 413 kts 172°
2026-04-20 17:06 46.13786 -122.06929 32931 ft 411 kts 172°
2026-04-20 17:07 46.11003 -122.06262 33233 ft 409 kts 173°
2026-04-20 17:07 46.08198 -122.05594 33528 ft 408 kts 173°
2026-04-20 17:07 46.05401 -122.04935 33808 ft 406 kts 173°
2026-04-20 17:07 46.02615 -122.04278 34087 ft 404 kts 173°
2026-04-20 17:08 45.99838 -122.03620 34341 ft 403 kts 173°
2026-04-20 17:08 45.97074 -122.02963 34596 ft 403 kts 173°
2026-04-20 17:08 45.94333 -122.02311 34838 ft 402 kts 173°
2026-04-20 17:08 45.91571 -122.01652 35060 ft 402 kts 173°
2026-04-20 17:09 45.88813 -122.00994 35276 ft 402 kts 173°
2026-04-20 17:09 45.86054 -122.00341 35489 ft 402 kts 173°
2026-04-20 17:09 45.83301 -121.99694 35710 ft 401 kts 174°
2026-04-20 17:09 45.80546 -121.99044 35900 ft 401 kts 174°
2026-04-20 17:10 45.77794 -121.98394 36079 ft 400 kts 174°
2026-04-20 17:10 45.75037 -121.97741 36260 ft 400 kts 174°
2026-04-20 17:10 45.72283 -121.97092 36437 ft 400 kts 174°
2026-04-20 17:10 45.69571 -121.96455 36601 ft 400 kts 174°
2026-04-20 17:11 45.66823 -121.95811 36785 ft 400 kts 174°
2026-04-20 17:11 45.61351 -121.94533 36894 ft 396 kts 174°
2026-04-20 17:12 45.55929 -121.93266 36901 ft 393 kts 175°
2026-04-20 17:12 45.50523 -121.91995 36896 ft 393 kts 175°
2026-04-20 17:13 45.45149 -121.90738 36894 ft 392 kts 175°
2026-04-20 17:13 45.39755 -121.89490 36898 ft 393 kts 175°
2026-04-20 17:14 45.34356 -121.88245 36900 ft 393 kts 175°
2026-04-20 17:14 45.28991 -121.87003 36899 ft 392 kts 175°
2026-04-20 17:15 45.23599 -121.85750 36893 ft 392 kts 175°
2026-04-20 17:15 45.18205 -121.84496 36904 ft 392 kts 176°
2026-04-20 17:16 45.12823 -121.83250 36905 ft 391 kts 176°
2026-04-20 17:16 45.07473 -121.82022 36905 ft 391 kts 176°
2026-04-20 17:17 45.02083 -121.80787 36909 ft 391 kts 176°
2026-04-20 17:17 44.97610 -121.79769 36906 ft 391 kts 176°
2026-04-20 17:18 44.92240 -121.78542 36917 ft 390 kts 176°
2026-04-20 17:18 44.86871 -121.77316 36921 ft 390 kts 176°
2026-04-20 17:19 44.81539 -121.76102 36912 ft 390 kts 176°
2026-04-20 17:19 44.76181 -121.74879 36930 ft 389 kts 177°
2026-04-20 17:20 44.70829 -121.73669 36933 ft 389 kts 177°
2026-04-20 17:20 44.65486 -121.72458 36940 ft 389 kts 177°
2026-04-20 17:21 44.60144 -121.71248 36945 ft 388 kts 177°
2026-04-20 17:21 44.54839 -121.70047 36952 ft 388 kts 177°
2026-04-20 17:22 44.49511 -121.68841 36956 ft 387 kts 177°
2026-04-20 17:22 44.44185 -121.67638 36953 ft 387 kts 178°
2026-04-20 17:23 44.38904 -121.66458 36951 ft 387 kts 178°
2026-04-20 17:23 44.33584 -121.65269 36950 ft 386 kts 178°
2026-04-20 17:24 44.28283 -121.64054 36956 ft 386 kts 177°
2026-04-20 17:24 44.22977 -121.62817 36961 ft 385 kts 177°
2026-04-20 17:25 44.17687 -121.61588 36959 ft 385 kts 177°
2026-04-20 17:25 44.12391 -121.60352 36959 ft 385 kts 177°
2026-04-20 17:26 44.07138 -121.59136 36956 ft 385 kts 177°
2026-04-20 17:26 44.01841 -121.57924 36960 ft 385 kts 178°
2026-04-20 17:27 43.96546 -121.56718 36965 ft 385 kts 178°
2026-04-20 17:27 43.91257 -121.55497 36971 ft 385 kts 178°
2026-04-20 17:28 43.85973 -121.54281 36974 ft 385 kts 178°
2026-04-20 17:28 43.80718 -121.53081 36978 ft 384 kts 178°
2026-04-20 17:29 43.75430 -121.51879 36978 ft 385 kts 178°
2026-04-20 17:29 43.70139 -121.50676 36981 ft 385 kts 178°
2026-04-20 17:30 43.64849 -121.49466 36979 ft 385 kts 178°
2026-04-20 17:30 43.59546 -121.48255 36976 ft 386 kts 178°
2026-04-20 17:31 43.54276 -121.47062 36973 ft 386 kts 178°
2026-04-20 17:31 43.48967 -121.45869 36972 ft 386 kts 178°
2026-04-20 17:32 43.43648 -121.44679 36968 ft 387 kts 178°
2026-04-20 17:32 43.38338 -121.43470 36966 ft 387 kts 178°
2026-04-20 17:33 43.33047 -121.42272 36963 ft 387 kts 178°
2026-04-20 17:33 43.27714 -121.41075 36960 ft 388 kts 178°
2026-04-20 17:34 43.22384 -121.39883 36954 ft 387 kts 178°
2026-04-20 17:34 43.17086 -121.38696 36952 ft 388 kts 179°
2026-04-20 17:35 43.11746 -121.37504 36950 ft 388 kts 179°
2026-04-20 17:35 43.06404 -121.36312 36948 ft 388 kts 179°
2026-04-20 17:36 43.01099 -121.35128 36947 ft 389 kts 179°
2026-04-20 17:36 42.95748 -121.33937 36948 ft 389 kts 179°
2026-04-20 17:37 42.90397 -121.32757 36947 ft 390 kts 179°
2026-04-20 17:37 42.85038 -121.31573 36945 ft 390 kts 179°
2026-04-20 17:38 42.79707 -121.30391 36946 ft 390 kts 179°
2026-04-20 17:38 42.74337 -121.29206 36944 ft 390 kts 179°
2026-04-20 17:39 42.68964 -121.28022 36944 ft 391 kts 179°
2026-04-20 17:39 42.63590 -121.26835 36945 ft 391 kts 179°
2026-04-20 17:40 42.58246 -121.25660 36946 ft 391 kts 179°
2026-04-20 17:40 42.52870 -121.24481 36948 ft 391 kts 179°
2026-04-20 17:41 42.47493 -121.23309 36948 ft 391 kts 179°
2026-04-20 17:41 42.42145 -121.22135 36945 ft 391 kts 179°
2026-04-20 17:42 42.36760 -121.20956 36946 ft 391 kts 179°
2026-04-20 17:42 42.31361 -121.19786 36948 ft 392 kts 179°
2026-04-20 17:43 42.26008 -121.18627 36950 ft 392 kts 179°
2026-04-20 17:43 42.20624 -121.17457 36951 ft 392 kts 179°
2026-04-20 17:44 42.15218 -121.16288 36952 ft 392 kts 179°
2026-04-20 17:44 42.09854 -121.15125 36949 ft 392 kts 179°
2026-04-20 17:45 42.04453 -121.13957 36948 ft 392 kts 179°
2026-04-20 17:45 41.99050 -121.12791 36947 ft 393 kts 179°
2026-04-20 17:46 41.93679 -121.11637 36941 ft 394 kts 179°
2026-04-20 17:46 41.88242 -121.10469 36939 ft 395 kts 179°
2026-04-20 17:47 41.82837 -121.09319 36938 ft 396 kts 179°
2026-04-20 17:47 41.77384 -121.08157 36940 ft 396 kts 179°
2026-04-20 17:48 41.71925 -121.06982 36945 ft 397 kts 179°
2026-04-20 17:48 41.66475 -121.05823 36951 ft 399 kts 179°
2026-04-20 17:49 41.60989 -121.04661 36955 ft 399 kts 179°
2026-04-20 17:49 41.55489 -121.03484 36959 ft 400 kts 179°
2026-04-20 17:50 41.49987 -121.02312 36963 ft 400 kts 179°
2026-04-20 17:50 41.44517 -121.01156 36967 ft 400 kts 179°
2026-04-20 17:51 41.39012 -120.99991 36968 ft 400 kts 179°
2026-04-20 17:51 41.33520 -120.98833 36967 ft 400 kts 179°
2026-04-20 17:52 41.28009 -120.97675 36968 ft 401 kts 179°
2026-04-20 17:52 41.22483 -120.96513 36966 ft 401 kts 179°
2026-04-20 17:53 41.16955 -120.95355 36967 ft 402 kts 179°
2026-04-20 17:53 41.11413 -120.94187 36971 ft 403 kts 179°
2026-04-20 17:54 41.05893 -120.93033 36971 ft 403 kts 179°
2026-04-20 17:54 41.00336 -120.91886 36976 ft 402 kts 181°
2026-04-20 17:55 40.94793 -120.91406 36978 ft 399 kts 184°
2026-04-20 17:55 40.89247 -120.90959 36982 ft 399 kts 183°
2026-04-20 17:56 40.83718 -120.90511 36985 ft 400 kts 184°
2026-04-20 17:56 40.78155 -120.90066 36986 ft 401 kts 183°
2026-04-20 17:57 40.72580 -120.89619 36990 ft 401 kts 183°
2026-04-20 17:57 40.67028 -120.89181 36994 ft 402 kts 183°
2026-04-20 17:58 40.61441 -120.88737 36995 ft 402 kts 183°
2026-04-20 17:58 40.55832 -120.88289 36997 ft 403 kts 183°
2026-04-20 17:59 40.50233 -120.87842 36998 ft 403 kts 183°
2026-04-20 17:59 40.44674 -120.87404 37001 ft 403 kts 183°
2026-04-20 18:00 40.39067 -120.86959 37004 ft 404 kts 183°
2026-04-20 18:00 40.33445 -120.86507 37005 ft 404 kts 183°
2026-04-20 18:01 40.27838 -120.86063 37008 ft 404 kts 183°
2026-04-20 18:01 40.22211 -120.85626 37010 ft 405 kts 183°
2026-04-20 18:02 40.16591 -120.85196 37010 ft 404 kts 183°
2026-04-20 18:02 40.10995 -120.84756 37012 ft 405 kts 183°
2026-04-20 18:03 40.05365 -120.84306 37013 ft 405 kts 183°
2026-04-20 18:03 39.99729 -120.83862 37020 ft 405 kts 183°
2026-04-20 18:04 39.95044 -120.83508 37027 ft 405 kts 181°
2026-04-20 18:04 39.88489 -120.83008 37037 ft 405 kts 180°
2026-04-20 18:05 39.80960 -120.82414 37042 ft 405 kts 180°
2026-04-20 18:05 39.75365 -120.81973 37043 ft 405 kts 180°
2026-04-20 18:06 39.69733 -120.81539 37054 ft 405 kts 180°
2026-04-20 18:06 39.64097 -120.81107 37060 ft 405 kts 180°
2026-04-20 18:07 39.58494 -120.80682 37066 ft 405 kts 180°
2026-04-20 18:07 39.52860 -120.80251 37067 ft 405 kts 180°
2026-04-20 18:08 39.47229 -120.79817 37069 ft 405 kts 180°
2026-04-20 18:08 39.41587 -120.79377 37069 ft 405 kts 180°
2026-04-20 18:09 39.35995 -120.78947 37074 ft 405 kts 180°
2026-04-20 18:09 39.30364 -120.78521 37074 ft 405 kts 180°
2026-04-20 18:10 39.24733 -120.78099 37081 ft 405 kts 180°
2026-04-20 18:10 39.19131 -120.77671 37090 ft 405 kts 180°
2026-04-20 18:11 39.13496 -120.77234 37081 ft 405 kts 180°
2026-04-20 18:11 39.07864 -120.76799 37074 ft 405 kts 180°
2026-04-20 18:12 39.02262 -120.76380 37069 ft 405 kts 180°
2026-04-20 18:12 38.96635 -120.75958 37062 ft 405 kts 180°
2026-04-20 18:13 38.91008 -120.75530 37059 ft 405 kts 180°
2026-04-20 18:13 38.85360 -120.75100 37049 ft 406 kts 180°
2026-04-20 18:14 38.79741 -120.74679 37052 ft 406 kts 180°
2026-04-20 18:14 38.74078 -120.74256 37049 ft 406 kts 180°
2026-04-20 18:15 38.68446 -120.73826 37051 ft 407 kts 180°
2026-04-20 18:15 38.62812 -120.73397 37051 ft 407 kts 180°
2026-04-20 18:16 38.57143 -120.72981 37056 ft 407 kts 180°
2026-04-20 18:16 38.51474 -120.72562 37053 ft 408 kts 180°
2026-04-20 18:17 38.45793 -120.72136 37047 ft 408 kts 180°
2026-04-20 18:17 38.40146 -120.71714 37044 ft 408 kts 180°
2026-04-20 18:18 38.34467 -120.71289 37040 ft 408 kts 180°
2026-04-20 18:18 38.28788 -120.70869 37030 ft 408 kts 180°
2026-04-20 18:19 38.23105 -120.70444 37030 ft 409 kts 180°
2026-04-20 18:19 38.17438 -120.70021 37028 ft 410 kts 180°
2026-04-20 18:20 38.11741 -120.69598 37033 ft 410 kts 180°
2026-04-20 18:20 38.06043 -120.69180 37034 ft 410 kts 180°
2026-04-20 18:21 38.00337 -120.68758 37033 ft 410 kts 180°
2026-04-20 18:21 37.94628 -120.68340 37032 ft 411 kts 180°
2026-04-20 18:22 37.88938 -120.67920 37029 ft 412 kts 180°
2026-04-20 18:22 37.83217 -120.67496 37027 ft 412 kts 180°
2026-04-20 18:23 37.77483 -120.67076 37022 ft 412 kts 180°
2026-04-20 18:23 37.71756 -120.66659 37019 ft 412 kts 180°
2026-04-20 18:24 37.66058 -120.66242 37016 ft 412 kts 180°
2026-04-20 18:24 37.60334 -120.65827 37016 ft 412 kts 180°
2026-04-20 18:25 37.54631 -120.65408 37017 ft 412 kts 179°
2026-04-20 18:25 37.48904 -120.64987 37018 ft 412 kts 179°
2026-04-20 18:26 37.43169 -120.64570 37021 ft 412 kts 179°
2026-04-20 18:26 37.37440 -120.64161 37025 ft 412 kts 179°
2026-04-20 18:27 37.31725 -120.63421 37026 ft 415 kts 169°
2026-04-20 18:27 37.26155 -120.61609 37027 ft 416 kts 169°
2026-04-20 18:28 37.20554 -120.59782 37030 ft 415 kts 169°
2026-04-20 18:28 37.14953 -120.57963 37023 ft 416 kts 169°
2026-04-20 18:29 37.09379 -120.56151 37022 ft 415 kts 169°
2026-04-20 18:29 37.03771 -120.54336 37020 ft 415 kts 168°
2026-04-20 18:30 36.98167 -120.52525 37014 ft 415 kts 168°
2026-04-20 18:30 36.92594 -120.50724 37013 ft 416 kts 168°
2026-04-20 18:31 36.86979 -120.48923 37012 ft 415 kts 168°
2026-04-20 18:31 36.81360 -120.47122 37015 ft 416 kts 168°
2026-04-20 18:32 36.75780 -120.45331 37018 ft 416 kts 168°
2026-04-20 18:32 36.70163 -120.43526 37029 ft 416 kts 168°
2026-04-20 18:33 36.64539 -120.41721 37041 ft 417 kts 168°
2026-04-20 18:33 36.58945 -120.39935 37042 ft 417 kts 168°
2026-04-20 18:34 36.53324 -120.38142 37045 ft 417 kts 168°
2026-04-20 18:34 36.47702 -120.36346 37038 ft 417 kts 168°
2026-04-20 18:35 36.42067 -120.34550 37039 ft 417 kts 168°
2026-04-20 18:35 36.36441 -120.32758 37040 ft 417 kts 168°
2026-04-20 18:36 36.30839 -120.30980 37049 ft 418 kts 168°
2026-04-20 18:36 36.25185 -120.29190 37044 ft 418 kts 168°
2026-04-20 18:37 36.19532 -120.27404 37045 ft 418 kts 168°
2026-04-20 18:37 36.13915 -120.25634 37051 ft 419 kts 168°
2026-04-20 18:38 36.08261 -120.23843 37057 ft 419 kts 168°
2026-04-20 18:38 36.02599 -120.22052 37061 ft 419 kts 168°
2026-04-20 18:39 35.96937 -120.20268 37063 ft 419 kts 168°
2026-04-20 18:39 35.91314 -120.18508 37065 ft 419 kts 168°
2026-04-20 18:40 35.85646 -120.16728 37067 ft 419 kts 168°
2026-04-20 18:40 35.80018 -120.14968 37070 ft 419 kts 168°
2026-04-20 18:41 35.74352 -120.13208 37075 ft 419 kts 168°
2026-04-20 18:41 35.68725 -120.11443 37075 ft 420 kts 166°
2026-04-20 18:42 35.63418 -120.08389 37079 ft 424 kts 151°
2026-04-20 18:42 35.58392 -120.04585 37081 ft 424 kts 151°
2026-04-20 18:43 35.53381 -120.00807 37081 ft 424 kts 151°
2026-04-20 18:43 35.48348 -119.97020 37076 ft 424 kts 151°
2026-04-20 18:44 35.43305 -119.93235 37067 ft 425 kts 151°
2026-04-20 18:44 35.38252 -119.89450 37066 ft 425 kts 151°
2026-04-20 18:45 35.33231 -119.85687 37072 ft 426 kts 151°
2026-04-20 18:45 35.28209 -119.81806 37078 ft 428 kts 145°
2026-04-20 18:46 35.23467 -119.77367 37083 ft 429 kts 145°
2026-04-20 18:46 35.21083 -119.75130 36966 ft 433 kts 145°
2026-04-20 18:46 35.18697 -119.72894 36712 ft 430 kts 145°
2026-04-20 18:47 35.16325 -119.70677 36462 ft 429 kts 145°
2026-04-20 18:47 35.13933 -119.68449 36214 ft 436 kts 145°
2026-04-20 18:47 35.11518 -119.66205 35805 ft 445 kts 145°
2026-04-20 18:47 35.09038 -119.63900 34896 ft 448 kts 145°
2026-04-20 18:48 35.06556 -119.61593 34066 ft 448 kts 145°
2026-04-20 18:48 35.04068 -119.59281 33087 ft 451 kts 145°
2026-04-20 18:48 35.01556 -119.56947 32069 ft 454 kts 145°
2026-04-20 18:48 34.99033 -119.54605 31058 ft 456 kts 146°
2026-04-20 18:49 34.96514 -119.52267 30370 ft 451 kts 146°
2026-04-20 18:49 34.94033 -119.49961 29725 ft 446 kts 146°
2026-04-20 18:49 34.91610 -119.47710 29083 ft 441 kts 146°
2026-04-20 18:49 34.89180 -119.45480 28602 ft 433 kts 147°
2026-04-20 18:50 34.86767 -119.43306 28151 ft 428 kts 147°
2026-04-20 18:50 34.84374 -119.41172 27698 ft 425 kts 147°
2026-04-20 18:50 34.81985 -119.39054 27246 ft 422 kts 147°
2026-04-20 18:50 34.79617 -119.36957 26807 ft 420 kts 148°
2026-04-20 18:51 34.77264 -119.34872 26393 ft 415 kts 148°
2026-04-20 18:51 34.75727 -119.33508 26089 ft 411 kts 148°
2026-04-20 18:51 34.73430 -119.31470 25622 ft 406 kts 148°
2026-04-20 18:51 34.71149 -119.29464 25228 ft 402 kts 148°
2026-04-20 18:52 34.68882 -119.27486 24801 ft 400 kts 149°
2026-04-20 18:52 34.66624 -119.25523 24375 ft 397 kts 148°
2026-04-20 18:52 34.64376 -119.23572 23932 ft 395 kts 149°
2026-04-20 18:52 34.62141 -119.21639 23409 ft 393 kts 149°
2026-04-20 18:53 34.59916 -119.19721 22922 ft 390 kts 149°
2026-04-20 18:53 34.57706 -119.17821 22421 ft 388 kts 149°
2026-04-20 18:53 34.55535 -119.15952 21915 ft 386 kts 149°
2026-04-20 18:53 34.53362 -119.14052 21419 ft 384 kts 148°
2026-04-20 18:54 34.51212 -119.12146 20947 ft 381 kts 148°
2026-04-20 18:54 34.49081 -119.10247 20458 ft 378 kts 148°
2026-04-20 18:54 34.46962 -119.08361 19959 ft 377 kts 148°
2026-04-20 18:54 34.44850 -119.06484 19511 ft 374 kts 148°
2026-04-20 18:55 34.42765 -119.04640 19055 ft 369 kts 148°
2026-04-20 18:55 34.40675 -119.02818 18598 ft 367 kts 148°
2026-04-20 18:55 34.38601 -119.01031 18115 ft 365 kts 148°
2026-04-20 18:55 34.36568 -118.99284 17629 ft 363 kts 148°
2026-04-20 18:56 34.34523 -118.97526 17191 ft 359 kts 148°
2026-04-20 18:56 34.32498 -118.95750 16748 ft 356 kts 147°
2026-04-20 18:56 34.30515 -118.93959 16278 ft 354 kts 147°
2026-04-20 18:56 34.28556 -118.92165 15802 ft 352 kts 146°
2026-04-20 18:57 34.26624 -118.90388 15122 ft 345 kts 146°
2026-04-20 18:57 34.24711 -118.88636 14376 ft 346 kts 146°
2026-04-20 18:57 34.22816 -118.86896 14163 ft 336 kts 146°
2026-04-20 18:57 34.20988 -118.85210 14034 ft 324 kts 145°
2026-04-20 18:58 34.19236 -118.83590 13767 ft 308 kts 145°
2026-04-20 18:58 34.17554 -118.82040 12981 ft 309 kts 145°
2026-04-20 18:58 34.15877 -118.80463 12764 ft 301 kts 143°
2026-04-20 18:58 34.14296 -118.78820 12537 ft 297 kts 141°
2026-04-20 18:59 34.12767 -118.77143 12267 ft 295 kts 140°
2026-04-20 18:59 34.11276 -118.75480 11965 ft 293 kts 140°
2026-04-20 18:59 34.09779 -118.73819 11666 ft 292 kts 140°
2026-04-20 18:59 34.08280 -118.72168 11368 ft 291 kts 140°
2026-04-20 19:00 34.06784 -118.70528 11075 ft 289 kts 140°
2026-04-20 19:00 34.05309 -118.68917 10858 ft 283 kts 140°
2026-04-20 19:00 34.03941 -118.67219 10503 ft 283 kts 128°
2026-04-20 19:00 34.03024 -118.65161 10200 ft 283 kts 111°
2026-04-20 19:01 34.02625 -118.62845 9915 ft 282 kts 98°
2026-04-20 19:01 34.02409 -118.60494 9626 ft 281 kts 98°
2026-04-20 19:01 34.02190 -118.58155 9335 ft 280 kts 98°
2026-04-20 19:01 34.01972 -118.55830 9059 ft 278 kts 98°
2026-04-20 19:02 34.01753 -118.53497 8526 ft 283 kts 97°
2026-04-20 19:02 34.01534 -118.51159 7997 ft 282 kts 97°
2026-04-20 19:02 34.01320 -118.48877 7725 ft 265 kts 97°
2026-04-20 19:02 34.01121 -118.46748 7590 ft 246 kts 96°
2026-04-20 19:03 34.01184 -118.44711 7404 ft 244 kts 80°
2026-04-20 19:03 34.01528 -118.42713 7066 ft 242 kts 79°
2026-04-20 19:03 34.01870 -118.40736 6753 ft 240 kts 79°
2026-04-20 19:03 34.02211 -118.38770 6447 ft 238 kts 79°
2026-04-20 19:04 34.02546 -118.36825 6150 ft 236 kts 79°
2026-04-20 19:04 34.02849 -118.34895 6008 ft 234 kts 82°
2026-04-20 19:04 34.03078 -118.32950 6000 ft 235 kts 82°
2026-04-20 19:04 34.03296 -118.30999 6002 ft 235 kts 84°
2026-04-20 19:05 34.03482 -118.29045 6001 ft 235 kts 84°
2026-04-20 19:05 34.03659 -118.27109 5998 ft 235 kts 84°
2026-04-20 19:05 34.03838 -118.25147 6001 ft 235 kts 84°
2026-04-20 19:05 34.04018 -118.23191 5997 ft 235 kts 84°
2026-04-20 19:06 34.04198 -118.21232 6008 ft 235 kts 84°
2026-04-20 19:06 34.04378 -118.19271 6012 ft 235 kts 84°
2026-04-20 19:06 34.04558 -118.17310 6003 ft 234 kts 84°
2026-04-20 19:06 34.04732 -118.15425 5997 ft 219 kts 84°
2026-04-20 19:07 34.04898 -118.13644 6001 ft 211 kts 84°
2026-04-20 19:07 34.04932 -118.11898 5846 ft 207 kts 105°
2026-04-20 19:07 34.04223 -118.10444 5560 ft 203 kts 140°
2026-04-20 19:07 34.03115 -118.09384 5255 ft 204 kts 144°
2026-04-20 19:08 34.01853 -118.08732 4988 ft 200 kts 175°
2026-04-20 19:08 33.99266 -118.09624 4326 ft 198 kts 221°
2026-04-20 19:08 33.98397 -118.10899 4107 ft 198 kts 243°
2026-04-20 19:09 33.98014 -118.12475 3892 ft 195 kts 263°
2026-04-20 19:09 33.97871 -118.14052 3788 ft 184 kts 263°
2026-04-20 19:09 33.97723 -118.15575 3572 ft 179 kts 262°
2026-04-20 19:09 33.97567 -118.17038 3390 ft 173 kts 261°
2026-04-20 19:10 33.97410 -118.18457 3193 ft 168 kts 262°
2026-04-20 19:10 33.97270 -118.19803 3067 ft 159 kts 263°
2026-04-20 19:10 33.97138 -118.21097 2915 ft 153 kts 262°
2026-04-20 19:10 33.96999 -118.22351 2744 ft 150 kts 261°
2026-04-20 19:11 33.96866 -118.23595 2577 ft 148 kts 264°
2026-04-20 19:11 33.96754 -118.24826 2489 ft 148 kts 263°
2026-04-20 19:11 33.96636 -118.26055 2361 ft 147 kts 263°
2026-04-20 19:11 33.96512 -118.27274 2221 ft 146 kts 262°
2026-04-20 19:12 33.96391 -118.28472 2085 ft 145 kts 263°
2026-04-20 19:12 33.96267 -118.29682 1922 ft 145 kts 263°
2026-04-20 19:12 33.96144 -118.30876 1697 ft 143 kts 263°
2026-04-20 19:12 33.96025 -118.32065 1485 ft 143 kts 263°
2026-04-20 19:13 33.95908 -118.33248 1288 ft 141 kts 263°
2026-04-20 19:13 33.95793 -118.34405 1091 ft 141 kts 263°
2026-04-20 19:13 33.95679 -118.35573 905 ft 140 kts 263°
2026-04-20 19:13 33.95563 -118.36733 713 ft 140 kts 262°
2026-04-20 19:14 33.95443 -118.37894 524 ft 139 kts 263°
2026-04-20 19:14 33.95327 -118.39055 335 ft 139 kts 263°
2026-04-20 19:14 33.95208 -118.40213 149 ft 140 kts 262°
2026-04-20 19:14 33.95098 -118.41300 93 ft 116 kts 263°
2026-04-20 19:15 33.95020 -118.42057 93 ft 66 kts 263°
2026-04-20 19:15 33.94977 -118.42435 93 ft 35 kts 253°
2026-04-20 19:15 33.94873 -118.42653 95 ft 17 kts 228°
2026-04-20 19:15 33.94801 -118.42734 99 ft 12 kts 216°
2026-04-20 19:16 33.94727 -118.42777 99 ft 12 kts 194°
2026-04-20 19:16 33.94646 -118.42765 96 ft 13 kts 140°
2026-04-20 19:16 33.94636 -118.42667 95 ft 12 kts 82°
2026-04-20 19:16 33.94646 -118.42576 96 ft 10 kts 82°
2026-04-20 19:17 33.94656 -118.42493 96 ft 10 kts 82°
2026-04-20 19:17 33.94664 -118.42417 97 ft 9 kts 82°
2026-04-20 19:17 33.94672 -118.42347 94 ft 8 kts 83°
2026-04-20 19:17 33.94681 -118.42245 94 ft 17 kts 83°
2026-04-20 19:18 33.94698 -118.42082 94 ft 21 kts 83°
2026-04-20 19:18 33.94714 -118.41907 95 ft 22 kts 85°
2026-04-20 19:18 33.94733 -118.41723 93 ft 23 kts 84°
2026-04-20 19:18 33.94752 -118.41531 94 ft 24 kts 82°
2026-04-20 19:19 33.94787 -118.41334 94 ft 25 kts 81°
2026-04-20 19:19 33.94809 -118.41124 95 ft 26 kts 82°
2026-04-20 19:19 33.94830 -118.40905 95 ft 27 kts 82°
2026-04-20 19:19 33.94852 -118.40706 94 ft 16 kts 81°
2026-04-20 19:20 33.94837 -118.40603 94 ft 13 kts 149°
2026-04-20 19:20 33.94750 -118.40579 93 ft 11 kts 172°
2026-04-20 19:20 33.94696 -118.40570 93 ft 5 kts 173°
2026-04-20 19:20 33.94679 -118.40568 92 ft 2 kts 173°
2026-04-20 19:21 33.94663 -118.40555 94 ft 5 kts 127°
2026-04-20 19:21 33.94656 -118.40510 93 ft 5 kts 93°
2026-04-20 19:21 33.94654 -118.40487 93 ft 1 kts 89°
2026-04-20 19:21 33.94654 -118.40482 93 ft 0 kts 96°